sat.trackr.live / text

‹ back to catalog

STARLINK-3675

NORAD 51963 · 2022-025H

PAYLOAD ACTIVE UNKNOWN

§ Identity

Operator
Country
US
Launch date
2022-03-09
Launch site
AFETR
Launch vehicle
Mass (kg)
RCS (m²)

Purposes: comms

External: N2YO · Heavens-Above · Gunter

§ Orbital elements

Epoch: 2026-05-24T22:30:08.735040Z

Period
94.01 min
Inclination
53.1613°
Eccentricity
0.0001255
Mean motion
15.31704877 rev/d
Perigee alt
469.9 km
Apogee alt
471.6 km
Semi-major
6,848.9 km
B*
2.6563e-5
RAAN
18.9313°
Arg perigee
89.1331°
Mean anomaly
270.9815°
Rev number
23,285

§ Raw data

STARLINK-36751 51963U 22025H   26144.93760110  .00000459  00000+0  26563-4 0  99922 51963  53.1613  18.9313 0001255  89.1331 270.9815 15.31704877232853

JSON: /api/v1/satellites/51963 · /tle

For live sub-satellite position, see the globe view (requires WebGL).

§ Visibility from observer

Set your observer location to see the next 7 days of passes ≥ 10°. The values pass through the URL so the page stays shareable.

No JS? Fill the form by hand. The geolocation button needs JavaScript.